Showing default

LEMU-NGE, 60532

Orbit data source: Space-Track

LEMU-NGE, 60532 is a Chilean payload satellite in SSO that was launched on Fri, 16 Aug 2024 UTC via an FALCON 9 launch vehicle from the Air Force Western Test Range (AFWTR). Payload-class satellites include a variety of spacecraft equipped with specific instruments for various scientific and technological missions. These include communications satellites like Starlink; space stations such as the ISS; scientific satellites like the Hubble; Earth observation satellites from companies like Planet Labs, Umbra, and HawkEye 360; GPS; miniature CubeSats for education and research; and military/defense satellites.

Loading next visibility...
Identifier
60532, 2024-149BS
Orbit
SSO
Last TLE update
16 hours ago
Origin
Manufacturer
NanoAvionics
Mission
Operational Commercial Imaging
Bus & Motor
CUBESAT 6U, Unknown motor
Mass
~10 kg wet, ~10 kg dry
Launch date (UTC)
2024-08-16 (11 months ago)
Launch vehicle
FALCON 9
Launch site
Air Force Western Test Range (AFWTR)
Object type
Payload
Rocket body
Debris
Shape & HBR
Box + 2 Pan, 0.3 m
Radar Cross Section
0.080 m², Small (<0.1 m²)

Expand to show TLE details & history

TLE from 16 hours ago
0 LEMU-NGE
1 60532U 24149BS  25191.45427069  .00000901  00000-0  87315-4 0  9999
2 60532  97.7191 267.5644 0002535  89.8449 270.3062 14.95142581 48892
Epoch: 2025-07-10T10:54Z
TLE epoch observation values (Epoch: 2025-07-10T10:54:08.987Z)
Latitude
-0.00005°
Longitude
175.40664°
Altitude
584.969 km
Speed
7.568 km/s
True Right ascension
17h 50m 15s
True Declination
0° 00' 00"
Sunlit
Object was in full shadow at epoch
Visualization orbit readout
Latitude
-67.17203°
Longitude
-22.63365°
Altitude
608.997 km
Speed
7.553 km/s
Apparent Right ascension
03h 24m 42s
Apparent Declination
-54° 46' 60"
Sunlit
Object is in daylight
Visualization observer readout
Local Sidereal Time
14:44:28
Azimuth
201.007° SSW
Elevation
-73.684°
Doppler factor
1
Orbital elements
Apogee altitude
580.706 km
Perigee altitude
577.179 km
Semi-major axis
6,957.08 km
Eccentricity
0.00025
Inclination
97.7191°
RAAN
267.5644°
Arg. of periapsis
89.8449°
True anomaly
Unknown
Mean anomaly
270.3062°
Eccentric anomaly
Unknown
Mean motion
3.74027 °/min
Orbital period
96.25 mins
BSTAR
0.000087315
Loading maneuver chart data...
Loading SW <> Apogee altitude chart data...
Loading historical data...
Loading historical data...
Loading historical data...
Loading historical data...
Loading historical data...
Loading historical data...
Loading historical data...

LEMU-NGE Visibility forecast

Observer location: undefined°, undefined°

Span
Click to sort rows by Start time (UTC) header in descending order
Start Az.
Max El. time (UTC)
Max El. Az.
Max El.
End time (UTC)
End Az.
7 mins2025-07-11 04:41:54.754Z143.038° SSE2025-07-11 04:44:54.754Z91.918° ESE34.201°2025-07-11 04:48:54.754Z2.387° NNE
6 mins2025-07-11 17:59:54.754Z12.204° NNE2025-07-11 18:02:54.754Z195.513° SSW43.818°2025-07-11 18:05:54.754Z193.755° SSW
|